星链-34161 (STARLINK-34161)

导读

STARLINK-34161是美国于2025年5月14日发射的星链卫星,隶属于SpaceX公司的星链项目。星链项目旨在构建全球卫星互联网星座,为全球尤其是偏远地区提供高速互联网接入服务。该卫星发射后将并入现有星链星座网络,进一步扩容星座容量,提升全球网络覆盖范围与服务能力。

Basic Information
目录编号:
64017
目录名称:
STARLINK-34161
国际标识:
2025-101Z
轨道中心:
EARTH
卫星名称:
星链-34161
卫星全名:
星链-34161 (STARLINK-34161)
卫星状态:
在轨 (已飞行478 天)
发射日期:
2025-05-14 UTC
国别 :
美国 (US)
星等 :
--
Orbit Information
数据来源 国际轨道数据
星历时间: 2026-09-03T20:28:40+0800
21小时前
查看轨道信息
半长轴: 6861.142km
偏心率: 0.0001886
轨道倾角: 42.998°
近地点辐角 165.094°
升交点赤经 73.520°
平近点角 194.997°
近地点: 481.71km
远地点: 484.3km
周期: 94.266分钟
每日圈数: 15.275948
Detailed Information
固有亮度:
5
最大亮度:
2.5
卫星平台:
Starlink V1.0
覆盖范围:
全球
运营商:
太空探索技术公司
运营商所在国:
美国
制造商(研发单位):
太空探索技术公司
制造商所在国:
美国
使用方式:
暂无
Satellite Introduction
Starlink 计划是 SpaceX 推出的全球卫星互联网项目,通过发射低轨道卫星,为全球尤其是偏远地区提供高速、低延迟的互联网服务。自 2019 年起,Starlink 已部署数千颗卫星,旨在缩小全球数字鸿沟,推动互联网普及。该项目还为军事、航空等行业提供通信支持,带来广泛经济效益。
2D Orbit Map
3D Orbit Map
Orbit Altitude Analysis Chart
Orbit Inclination Analysis Chart
Orbit Comprehensive Analysis Chart
View Comprehensive Chart
Conjunction Data List
Event ID Objects TCA Miss Dist (km) Collision Risk Probability Collision Risk Index (CRI) Action
CDM_260906-021405-918206-401721
2026-09-06T
02:14:11+0000
1.462 km
极远距离
4.665969E-6 低风险 0.48
CDM_260906-034805-918206-401721
2026-09-06T
03:48:20+0000
1.938 km
极远距离
2.04763E-6 低风险 0.41
CDM_260906-004005-918206-401721
2026-09-06T
00:40:01+0000
2.275 km
极远距离
1.419407E-6 低风险 0.38
CDM_260904-201206-401706-441921
2026-09-04T
20:12:44+0000
2.905 km
极远距离
1.043746E-6 低风险 0.35